EW4210 Weather Reports


Display with metric or nautical units.
time (UTC)temp
F
wind
direction
speed
MPH
gust
MPH
rain 1hr
in
rain 24hr
in
rain mn
in
humidity
%
barometer
mb
20260905060058 79 118 0.0 0.0 0.00 0.00 0.00 82 1012.3
20260905054546 80 118 0.0 1.0 0.00 0.00 0.00 82 1012.4
20260905053036 80 118 0.0 0.0 0.00 0.00 0.00 81 1012.3
20260905051526 80 118 0.0 0.0 0.00 0.00 0.00 81 1012.3
20260905050052 81 118 0.0 0.0 0.00 0.00 0.00 80 1012.3
20260905044540 81 118 0.0 0.0 0.00 0.00 0.00 79 1012.1
20260905043014 82 118 0.0 0.0 0.00 0.00 0.00 77 1012.0
20260905041558 82 118 0.0 0.0 0.00 0.00 0.00 75 1012.1
20260905040037 82 119 0.0 0.0 0.00 0.00 0.00 75 1012.0
20260905034522 83 119 0.0 0.0 0.00 0.00 0.00 75 1012.2
20260905033005 83 119 0.0 0.0 0.00 0.00 0.00 74 1012.2
20260905031609 83 119 0.0 0.0 0.00 0.00 0.00 72 1012.2
20260905030047 84 119 0.0 0.0 0.00 0.00 0.00 72 1012.2
20260905024538 84 119 0.0 0.0 0.00 0.00 0.00 71 1012.1
20260905023020 85 119 0.0 0.0 0.00 0.00 0.00 71 1012.0
20260905021601 85 119 0.0 0.0 0.00 0.00 0.00 70 1011.9
20260905021502 85 119 0.0 0.0 0.00 0.00 0.00 69 1012.0
20260905020044 85 119 0.0 0.0 0.00 0.00 0.00 68 1011.8
20260905014528 86 119 0.0 1.0 0.00 0.00 0.00 68 1011.5
20260905013014 87 119 0.0 1.0 0.00 0.00 0.00 66 1011.5
20260905011559 87 119 0.0 1.0 0.00 0.00 0.00 64 1011.4
20260905010034 87 119 0.0 0.0 0.00 0.00 0.00 64 1011.4
20260905004516 88 119 0.0 1.0 0.00 0.00 0.00 62 1011.4
20260905003059 89 119 0.0 1.0 0.00 0.00 0.00 61 1011.3
20260905003001 90 119 0.0 1.0 0.00 0.00 0.00 61 1011.4
20260905001551 91 119 0.0 2.0 0.00 0.00 0.00 59 1011.3
20260905000032 92 98 0.0 3.0 0.00 0.00 0.00 55 1011.3
20260904234511 93 79 1.0 4.0 0.00 0.00 0.00 52 1011.1
20260904233059 94 84 0.0 3.0 0.00 0.00 0.00 52 1010.9
20260904233001 94 115 0.0 3.0 0.00 0.00 0.00 52 1010.9
20260904231547 94 93 0.0 4.0 0.00 0.00 0.00 50 1010.9
20260904230043 94 98 1.0 3.0 0.00 0.00 0.00 50 1010.9
20260904224555 95 85 0.0 4.0 0.00 0.00 0.00 51 1010.8
20260904223048 95 140 2.0 4.0 0.00 0.00 0.00 50 1011.0
20260904221516 95 62 0.0 4.0 0.00 0.00 0.00 47 1010.9
20260904220115 96 102 2.0 6.0 0.00 0.00 0.00 45 1011.1
20260904214537 96 105 1.0 8.0 0.00 0.00 0.00 44 1011.1
20260904213013 96 97 1.0 9.0 0.00 0.00 0.00 46 1011.3
20260904211552 96 78 1.0 6.0 0.00 0.00 0.00 48 1011.4
20260904210043 96 90 2.0 5.0 0.00 0.00 0.00 50 1011.6
20260904204516 96 107 3.0 8.0 0.00 0.00 0.00 49 1012.0
20260904203054 96 88 2.0 5.0 0.00 0.00 0.00 50 1012.0
20260904201545 96 49 2.0 5.0 0.00 0.00 0.00 52 1012.2
20260904200039 96 122 2.0 4.0 0.00 0.00 0.00 52 1012.3
20260904194556 96 159 1.0 8.0 0.00 0.00 0.00 54 1012.8
20260904193039 96 71 1.0 5.0 0.00 0.00 0.00 54 1013.0
20260904191521 96 170 2.0 6.0 0.00 0.00 0.00 49 1013.1
20260904190106 97 227 1.0 3.0 0.00 0.00 0.00 49 1013.2
20260904190007 97 273 1.0 3.0 0.00 0.00 0.00 49 1013.2
20260904184538 95 102 1.0 8.0 0.00 0.00 0.00 49 1013.6
20260904183009 95 77 2.0 6.0 0.00 0.00 0.00 48 1013.6
20260904181549 95 130 2.0 4.0 0.00 0.00 0.00 49 1013.8
20260904180026 94 126 3.0 7.0 0.00 0.00 0.00 55 1013.9
20260904174619 94 309 0.0 2.0 0.00 0.00 0.00 57 1014.1
20260904173043 95 285 0.0 4.0 0.00 0.00 0.00 59 1014.3
20260904171518 95 325 0.0 3.0 0.00 0.00 0.00 56 1014.5
20260904170052 94 131 0.0 4.0 0.00 0.00 0.00 61 1014.7
20260904164534 93 43 1.0 3.0 0.00 0.00 0.00 59 1014.8
20260904163016 93 16 0.0 3.0 0.00 0.00 0.00 60 1014.8
20260904161606 92 344 1.0 3.0 0.00 0.00 0.00 59 1014.8
20260904160040 92 336 1.0 3.0 0.00 0.00 0.00 61 1014.8
20260904154520 92 355 0.0 2.0 0.00 0.00 0.00 60 1014.8
20260904153127 91 38 1.0 2.0 0.00 0.00 0.00 64 1014.8
20260904151534 90 91 2.0 4.0 0.00 0.00 0.00 65 1014.9
20260904150014 89 355 1.0 2.0 0.00 0.00 0.00 68 1014.8
20260904144547 88 92 1.0 3.0 0.00 0.00 0.00 72 1014.7
20260904143031 88 346 0.0 0.0 0.00 0.00 0.00 71 1014.6
20260904141512 86 167 0.0 2.0 0.00 0.00 0.00 72 1014.5
20260904140047 86 92 0.0 0.0 0.00 0.00 0.00 74 1014.5
20260904134526 84 92 0.0 0.0 0.00 0.00 0.00 76 1014.4
20260904133104 82 92 0.0 0.0 0.00 0.00 0.00 83 1014.5
20260904133002 81 92 0.0 0.0 0.00 0.00 0.00 83 1014.5
20260904131539 80 92 0.0 0.0 0.00 0.00 0.00 84 1014.5
20260904130023 78 92 0.0 0.0 0.00 0.00 0.00 88 1014.3
20260904124506 76 92 0.0 0.0 0.00 0.00 0.00 91 1014.3
20260904123041 75 92 0.0 0.0 0.00 0.00 0.00 92 1014.1
20260904121529 74 92 0.0 0.0 0.00 0.00 0.00 92 1013.7
20260904120016 74 92 0.0 0.0 0.00 0.00 0.00 91 1013.7
20260904114553 74 92 0.0 0.0 0.00 0.00 0.00 91 1013.7
20260904113034 75 92 0.0 0.0 0.00 0.00 0.00 91 1013.8
20260904111511 75 92 0.0 0.0 0.00 0.00 0.00 91 1013.7
20260904110051 75 92 0.0 0.0 0.00 0.00 0.00 90 1013.5
20260904104529 75 92 0.0 0.0 0.00 0.00 0.00 89 1013.5
20260904103013 76 92 0.0 0.0 0.00 0.00 0.00 89 1013.5
20260904101554 76 92 0.0 0.0 0.00 0.00 0.00 89 1013.5
20260904100037 76 92 0.0 0.0 0.00 0.00 0.00 88 1013.3
20260904094513 76 92 0.0 0.0 0.00 0.00 0.00 88 1013.3
20260904093058 76 92 0.0 0.0 0.00 0.00 0.00 88 1013.2
20260904091531 77 92 0.0 0.0 0.00 0.00 0.00 87 1012.9
20260904090007 77 92 0.0 0.0 0.00 0.00 0.00 86 1012.8
20260904084547 78 92 0.0 0.0 0.00 0.00 0.00 85 1012.7
20260904083036 78 92 0.0 0.0 0.00 0.00 0.00 85 1012.8
20260904081517 78 92 0.0 0.0 0.00 0.00 0.00 84 1012.8
20260904080057 78 92 0.0 0.0 0.00 0.00 0.00 83 1012.7
20260904074538 79 92 0.0 0.0 0.00 0.00 0.00 82 1012.7
20260904073038 79 92 0.0 0.0 0.00 0.00 0.00 80 1012.7
20260904071502 80 92 0.0 0.0 0.00 0.00 0.00 80 1012.7
20260904070046 80 92 0.0 0.0 0.00 0.00 0.00 80 1012.7
20260904064526 80 92 0.0 0.0 0.00 0.00 0.00 80 1012.6
20260904063003 80 92 0.0 0.0 0.00 0.00 0.00 79 1012.8
20260904061554 81 92 0.0 0.0 0.00 0.00 0.00 78 1012.8